Home   Weather   Samarkand   Past weeks

Flag for Uzbekistan Past Weather in Samarkand, Uzbekistan — Yesterday and Last 2 Weeks

43 °F


Feels Like: 37 °F
Forecast: 31 / 54 °F
Wind: 9 mph from East

Location: Samarkand

Current Time: Oct 25, 2016 at 6:45:25 PM

Latest Report: Oct 25, 2016 at 6:00 PM

Visibility: 4 mi

Pressure: 30.42 "Hg (27.85 "Hg at 721m altitude)

Humidity: 53%

Dew Point: 27 °F

Location of SamarkandLocation

Past Weather in Samarkand — Graph


Samarkand Temperature Yesterday

Maximum temperature yesterday: 52 °F (at 2:00 PM)
Minimum temperature yesterday: 32 °F (at 3:30 AM)
Average temperature yesterday: 40 °F

High & Low Weather Summary for the Past Weeks

High77 °F (Oct 11, 2:00 PM)100% (Oct 14, 10:30 PM)30.45 "Hg (Oct 14, 10:30 PM)
Low32 °F (Oct 24, 3:30 AM)15% (Oct 12, 11:30 AM)29.92 "Hg (Oct 15, 3:00 PM)
Average50 °F60%30.18 "Hg
* Reported Oct 10 5:00 PM — Oct 25 5:30 PM, Samarkand, Weather by CustomWeather, © 2016

Note: Actual official high and low records may vary slightly from our data, if they occured in-between our weather recording intervals... More about our weather records


Samarkand Weather History for the Previous 24 Hours

Scroll right to see more
Time TempWeatherWind HumidityBarometerVisibility
5:30 PM
Tue, Oct 25
46 °FClear.9 mph43%30.39 "HgN/A
5:00 PM50 °FClear.6 mph35%30.39 "HgN/A
4:30 PM52 °FClear.7 mph32%30.39 "HgN/A
4:00 PM52 °FClear.8 mph32%30.39 "HgN/A
3:30 PM52 °FClear.9 mph32%30.39 "HgN/A
3:00 PM54 °FClear.12 mph30%30.36 "HgN/A
2:30 PM54 °FClear.12 mph28%30.36 "HgN/A
2:00 PM54 °FCool.N/A35%30.36 "HgN/A
1:30 PM54 °FClear.8 mph30%30.36 "HgN/A
1:00 PM52 °FClear.7 mph35%30.36 "HgN/A
12:30 PM52 °FClear.7 mph35%30.36 "HgN/A
12:00 PM50 °FClear.6 mph35%30.36 "HgN/A
11:30 AM50 °FClear.5 mph32%30.36 "HgN/A
11:00 AM50 °FClear.3 mph32%30.36 "HgN/A
10:30 AM48 °FClear.3 mph34%30.36 "HgN/A
10:00 AM48 °FClear.1 mph43%30.36 "HgN/A
9:30 AM45 °FPassing clouds.2 mph53%30.36 "HgN/A
9:00 AM41 °FScattered clouds.2 mph61%30.36 "HgN/A
8:30 AM39 °FPartly sunny.3 mph65%30.36 "HgN/A
8:00 AM37 °FScattered clouds.5 mph70%30.33 "HgN/A
7:30 AM37 °FPartly sunny.2 mph70%30.33 "HgN/A
7:00 AM37 °FPartly sunny.2 mph70%30.33 "HgN/A
6:30 AM37 °FPassing clouds.5 mph70%30.33 "Hg4 mi
6:00 AM37 °FPassing clouds.7 mph70%30.33 "Hg4 mi
5:30 AM37 °FPassing clouds.3 mph70%30.30 "Hg4 mi
5:00 AM36 °FPassing clouds.7 mph70%30.30 "Hg4 mi
4:30 AM36 °FPassing clouds.5 mph70%30.30 "Hg4 mi
4:00 AM36 °FPassing clouds.3 mph70%30.30 "Hg4 mi
3:30 AM36 °FPassing clouds.3 mph70%30.30 "Hg4 mi
3:00 AM36 °FPassing clouds.2 mph70%30.30 "Hg4 mi
2:30 AM36 °FPassing clouds.2 mph70%30.30 "Hg4 mi
2:00 AM37 °FPassing clouds.3 mph65%30.30 "Hg4 mi
1:30 AM37 °FClear.5 mph65%30.30 "Hg4 mi
1:00 AM37 °FClear.5 mph65%30.30 "Hg4 mi
12:30 AM36 °FClear.3 mph70%30.30 "Hg4 mi
12:00 AM37 °FClear.5 mph70%30.30 "Hg4 mi
11:30 PM
Mon, Oct 24
37 °FClear.6 mph70%30.30 "Hg4 mi
11:00 PM39 °FPassing clouds.6 mph65%30.30 "Hg4 mi
10:30 PM39 °FPassing clouds.3 mph65%30.30 "Hg4 mi
10:00 PM39 °FPassing clouds.7 mph65%30.30 "Hg4 mi
9:30 PM41 °FPartly cloudy.8 mph61%30.30 "Hg4 mi
9:00 PM41 °FPassing clouds.7 mph61%30.30 "Hg4 mi
8:30 PM41 °FPassing clouds.7 mph61%30.30 "Hg4 mi
8:00 PM41 °FPassing clouds.7 mph61%30.30 "Hg4 mi
7:30 PM43 °FPassing clouds.5 mph57%30.30 "Hg4 mi
7:00 PM43 °FPassing clouds.6 mph57%30.30 "Hg4 mi
6:30 PM43 °FPassing clouds.6 mph57%30.30 "Hg4 mi
6:00 PM43 °FPassing clouds.8 mph57%30.30 "Hg4 mi
Weather by CustomWeather, © 2016

See weather overviewHow to use our weather pages